Regional Weather Roundup
Issued by NWS

Home | Current Version | Previous Version | Graphics & Text | Print | Product List | Glossary On
Versions: 1 2 3 4 5 6 7 8 9 10 11 12 13 14 15 16 17 18 19 20 21 22 23 24 25 26 27 28 29 30 31 32 33 34 35 36 37 38 39 40 41 42 43 44 45 46 47 48 49 50
000
ASUS45 KCYS 051110
RWRWY

WYOMING REGIONAL WEATHER ROUNDUP
NATIONAL WEATHER SERVICE CHEYENNE WY
500 AM MDT TUE MAY 05 2015

NOTE:  "FAIR" INDICATES FEW OR NO CLOUDS BELOW 12,000 FEET
WITH NO SIGNIFICANT WEATHER AND/OR OBSTRUCTIONS TO VISIBILITY.

WYZ001-051200-
YELLOWSTONE NATIONAL PARK

CITY           SKY/WX    TMP DP  RH WIND       PRES   REMARKS
LK YELLOWSTONE   N/A     29  26  89 CALM      30.04F
W YELLOWSTONE  NOT AVBL

$$
WYZ002>013-054>058-071-098>099-051200-
NORTHERN WYOMING

CITY           SKY/WX    TMP DP  RH WIND       PRES   REMARKS
JACKSON        CLOUDY    37  34  87 NE5       29.98F WCI  34
CODY           FAIR      48  37  66 SE13      29.89S
GREYBULL       FAIR      52  41  66 SE5       29.85F
WORLAND        FAIR      49  41  74 S3        29.86F
SHERIDAN       FAIR      42  39  89 CALM      29.87F
BUFFALO        FAIR      43  40  89 SE6       29.90F
GILLETTE       FAIR      43  36  76 S15       29.94S
HULETT         FAIR      48  37  66 SW10      29.96F
NEWCASTLE      FAIR      45  37  76 SE14G22   30.02F

$$
WYZ014>020-022>026-101>103-051200-
CENTRAL WYOMING

CITY           SKY/WX    TMP DP  RH WIND       PRES   REMARKS
BIG PINEY      FAIR      37  34  89 E7        29.99F WCI  32
PINEDALE       PTSUNNY   37  36  93 W5        30.01S WCI  34
DUBOIS         FAIR      36  32  87 NW13      29.98F WCI  27
LANDER         FAIR      47  36  65 S5        29.91F
RIVERTON       FAIR      45  37  73 N3        29.93F
CASPER         FAIR      34  33  96 N3        29.95S
DOUGLAS        CLOUDY    45  43  93 SE17      29.99S

$$
WYZ021-027>030-104>119-051200-
SOUTHERN WYOMING

CITY           SKY/WX    TMP DP  RH WIND       PRES   REMARKS
EVANSTON       FAIR      43  36  76 E3        29.97F
KEMMERER       FAIR      37  36  93 N10       29.98F WCI  30
FORT BRIDGER   SUNNY     43  43 100 CALM      30.00S
ROCK SPRINGS   FAIR      43  37  79 N5        29.96F
DIXON          FAIR      38  34  85 E3        29.99F
RAWLINS        MOCLDY    40  39  97 CALM      29.99S FOG
SARATOGA       FAIR      34  32  93 CALM      30.00S
LARAMIE        MOCLDY    41  39  93 SE16      30.01S
CHEYENNE       FOG       43  43 100 S10       30.02F VSB 1/4
TORRINGTON     CLOUDY    46  44  93 SE9       30.01F
PINE BLUFFS    CLOUDY    43  43 100 SE7       30.04S FOG

$$



USA.gov is the U.S. government's official web portal to all federal, state and local government web resources and services.